Gwinn, MI

11:59 AM EDT on June 24, 2017 (GMT -0400)
Sawyer International

Weather History for KSAW - March, 2013

Change the Weather History Date:

Saturday, March 23, 2013

  Actual Average (KESC) Record (KESC)
Temperature  
Mean Temperature 26 °F -  
Max Temperature 30 °F 38 °F 52 °F (1987)
Min Temperature 23 °F 20 °F 0 °F (1974)
Degree Days  
Heating Degree Days 38    
Moisture  
Dew Point 21 °F    
Average Humidity 83    
Maximum Humidity 86    
Minimum Humidity 74    
Precipitation  
Precipitation 0.00 in - - ()
Sea Level Pressure  
Sea Level Pressure 30.07 in    
Wind  
Wind Speed 6 mph (NNW)    
Max Wind Speed 15 mph    
Max Gust Speed -    
Visibility 10 miles    
Events Snow    
Averages and records for this station are not official NWS values.
T = Trace of Precipitation, MM = Missing Value Source: NWS Daily Summary

Daily Weather History Graph

Daily Weather History Graph

Search for Another Location

Airport or City:

Trip Planner

Search our weather history database for the weather conditions in past years. The results will help you decide how hot, cold, wet, or windy it might be!

Date:

Astronomy

Mar. 23, 2013 Rise Set
Actual Time 7:46 AM EDT 8:06 PM EDT
Civil Twilight 7:16 AM EDT 8:36 PM EDT
Nautical Twilight 6:40 AM EDT 9:12 PM EDT
Astronomical Twilight 6:04 AM EDT 9:49 PM EDT
Moon 4:22 PM EDT (3/23) 5:34 AM EDT (3/23)
Length of Visible Light 13h 20m
Length of Day
12h 20m
Waxing Gibbous, 85% of the Moon is Illuminated
Mar 23
Waxing Gibbous
Mar 27
Full
Apr 3
Last Quarter
Apr 10
New
Apr 18
First Quarter

Hourly Weather History & Observations

Time (EDT) Temp. Windchill Dew Point Humidity Pressure Visibility Wind Dir Wind Speed Gust Speed Precip Events Conditions
12:17 AM 23.5 °F 15.4 °F 19.8 °F 85% 30.04 in 10.0 mi NW 6.9 mph - N/A   Overcast
12:36 AM 23.5 °F 16.4 °F 19.8 °F 85% 30.04 in 10.0 mi NW 5.8 mph - N/A   Overcast
12:56 AM 23.5 °F 16.4 °F 19.8 °F 85% 30.04 in 10.0 mi NW 5.8 mph - N/A   Overcast
1:17 AM 23.7 °F 16.6 °F 19.6 °F 84% 30.04 in 10.0 mi WNW 5.8 mph - N/A   Overcast
1:36 AM 23.0 °F 17.0 °F 19.4 °F 86% 30.03 in 10.0 mi WNW 4.6 mph - N/A   Overcast
1:57 AM 23.5 °F 17.6 °F 19.8 °F 85% 30.04 in 10.0 mi WNW 4.6 mph - N/A   Overcast
2:17 AM 23.7 °F - 19.8 °F 85% 30.04 in 10.0 mi Calm Calm - N/A   Overcast
2:36 AM 23.7 °F 19.3 °F 19.8 °F 85% 30.04 in 10.0 mi WNW 3.5 mph - N/A   Overcast
2:57 AM 23.7 °F - 19.8 °F 85% 30.04 in 10.0 mi Calm Calm - N/A   Overcast
3:17 AM 23.7 °F - 19.6 °F 84% 30.04 in 10.0 mi Calm Calm - N/A   Overcast
3:36 AM 23.5 °F - 19.6 °F 85% 30.03 in 10.0 mi Calm Calm - N/A   Overcast
3:57 AM 23.5 °F 19.1 °F 19.6 °F 85% 30.03 in 10.0 mi West 3.5 mph - N/A   Overcast
4:17 AM 23.7 °F 17.8 °F 19.8 °F 85% 30.04 in 10.0 mi West 4.6 mph - N/A   Overcast
4:36 AM 23.9 °F 18.0 °F 19.8 °F 84% 30.03 in 10.0 mi West 4.6 mph - N/A   Overcast
4:57 AM 23.9 °F 18.0 °F 19.9 °F 85% 30.04 in 10.0 mi West 4.6 mph - N/A   Overcast
5:16 AM 23.9 °F 19.5 °F 19.9 °F 85% 30.04 in 10.0 mi WNW 3.5 mph - N/A   Overcast
5:37 AM 23.9 °F 16.8 °F 20.1 °F 85% 30.04 in 10.0 mi WNW 5.8 mph - N/A   Overcast
5:57 AM 23.9 °F 18.0 °F 20.1 °F 85% 30.04 in 10.0 mi WNW 4.6 mph - N/A   Overcast
6:50 AM 24.8 °F 19.1 °F 19.4 °F 80% 30.04 in 10.0 mi West 4.6 mph - N/A   Overcast
7:50 AM 24.8 °F - 21.2 °F 86% 30.06 in 10.0 mi Calm Calm - N/A   Overcast
8:50 AM 24.8 °F 17.9 °F 21.2 °F 86% 30.06 in 10.0 mi NW 5.8 mph - N/A   Overcast
9:50 AM 26.6 °F 20.0 °F 23.0 °F 86% 30.08 in 10.0 mi NNW 5.8 mph - N/A   Overcast
10:50 AM 28.4 °F 22.2 °F 23.0 °F 80% 30.09 in 10.0 mi North 5.8 mph - N/A   Overcast
11:50 AM 28.4 °F 19.1 °F 23.0 °F 80% 30.09 in 10.0 mi NNW 10.4 mph - N/A   Overcast
12:50 PM 28.4 °F 21.2 °F 21.2 °F 74% 30.10 in 10.0 mi North 6.9 mph - N/A   Overcast
1:50 PM 28.4 °F 21.2 °F 21.2 °F 74% 30.10 in 7.0 mi WNW 6.9 mph - N/A Snow Light Snow
2:50 PM 28.4 °F 23.3 °F 21.2 °F 74% 30.11 in 10.0 mi NW 4.6 mph - N/A   Overcast
3:50 PM 30.2 °F 19.3 °F 23.0 °F 75% 30.08 in 10.0 mi NNE 15.0 mph - N/A   Overcast
4:50 PM 28.4 °F 18.0 °F 23.0 °F 80% 30.08 in 10.0 mi NNE 12.7 mph - N/A   Overcast
5:55 PM 28.4 °F 18.5 °F 23.0 °F 80% 30.09 in 10.0 mi NE 11.5 mph - N/A   Overcast
6:55 PM 26.6 °F 17.5 °F 23.0 °F 86% 30.09 in 10.0 mi NNE 9.2 mph - N/A   Overcast
7:50 PM 26.6 °F 17.5 °F 23.0 °F 86% 30.09 in 10.0 mi NNE 9.2 mph - N/A   Overcast
8:50 PM 26.6 °F 18.2 °F 23.0 °F 86% 30.10 in 10.0 mi NNE 8.1 mph - N/A   Overcast
9:55 PM 26.6 °F 20.0 °F 23.0 °F 86% 30.10 in 10.0 mi NNE 5.8 mph - N/A   Overcast
10:16 PM 26.1 °F 17.6 °F 22.5 °F 86% 30.11 in 10.0 mi North 8.1 mph - N/A   Overcast
10:37 PM 26.1 °F 16.8 °F 22.3 °F 86% 30.10 in 10.0 mi NNE 9.2 mph - N/A   Overcast
10:57 PM 25.7 °F 17.1 °F 21.6 °F 84% 30.10 in 10.0 mi North 8.1 mph - N/A   Overcast
11:16 PM 26.1 °F 16.2 °F 21.2 °F 82% 30.10 in 10.0 mi NNE 10.4 mph - N/A   Overcast
11:37 PM 26.1 °F 17.6 °F 21.2 °F 82% 30.10 in 10.0 mi North 8.1 mph - N/A   Overcast
11:57 PM 26.1 °F 16.8 °F 21.2 °F 82% 30.09 in 10.0 mi North 9.2 mph - N/A   Overcast